[[{"header":{"parameterUnit":"m.s-1","parameterCategory":1,"la1":30.2991,"la2":30.254,"lo1":-89.0895,"lo2":-89.0444,"dy":0.0017,"dx":0.0017,"nx":28,"ny":28,"refTime":"2023-08-19T21:00:00:Z","depth":0,"parameterNumber":2,"parameterNumberName":"U-component_of_WINDS"},"data":[0,0,0,0,0,0,0,0,0,0,0,0,0,0,0,0,0,0,0,0,0,0,0,0,0,0,0,0,0,0,0,0,0,0,0,0,0,0,0,0,0,0,0,0,0,0,0,0,0,0,0,0,0,0,0,0,0,0,-5.541,-5.5411,0,-5.5517,-5.5518,-5.552,-5.544,-5.5437,-5.5433,-5.543,-5.5537,-5.5543,-5.5549,0,0,0,0,0,0,0,0,0,0,0,0,0,-5.5136,-5.5141,-5.541,-5.5411,-5.5413,-5.5517,-5.5518,-5.552,-5.5441,-5.5436,-5.5432,-5.5428,-5.5535,-5.5543,-5.555,0,0,0,0,0,0,0,0,0,0,0,0,0,-5.525,-5.5143,-5.541,-5.5386,-5.5385,-5.5517,-5.5518,-5.552,-5.5442,-5.5436,-5.5431,-5.5426,-5.5533,-5.5542,-5.5551,-5.5712,0,0,-5.5579,-5.5583,0,0,0,0,0,0,0,0,-5.5244,-5.526,-5.5388,-5.5388,-5.5387,-5.546,-5.5461,-5.5584,-5.5443,-5.542,-5.543,-5.5424,-5.5516,-5.5526,-5.5557,-5.5717,-5.5721,-5.558,-5.5585,-5.5589,-5.5592,0,0,0,0,0,0,0,-5.5236,-5.5255,-5.5452,-5.539,-5.5389,-5.5369,-5.538,-5.5484,-5.5496,-5.5421,-5.5416,-5.543,-5.5514,-5.5549,-5.5559,-5.5723,-5.5579,-5.5587,-5.5593,-5.5597,-5.602,-5.6025,0,0,0,0,0,0,-5.523,-5.5249,-5.5449,-5.5455,-5.5301,-5.5379,-5.539,-5.5442,-5.5494,-5.5497,-5.5434,-5.5426,-5.5536,-5.5549,-5.5563,-5.5754,-5.5589,-5.5598,-5.5603,-5.6014,-5.6021,-5.6027,0,0,0,0,0,0,-5.5225,-5.5249,-5.5444,-5.5351,-5.5374,-5.5389,-5.5447,-5.5446,-5.5481,-5.5504,-5.5505,-5.5467,-5.5532,-5.555,-5.5675,-5.5756,-5.5602,-5.561,-5.6007,-5.6016,-5.6024,-5.6137,0,0,0,0,0,0,-5.5217,-5.5247,-5.5308,-5.5353,-5.538,-5.5556,-5.5452,-5.5452,-5.5497,-5.5487,-5.5535,-5.5538,-5.5529,-5.5662,-5.5685,-5.5766,-5.5617,-5.6,-5.6011,-5.6021,-5.6126,-5.6148,-5.6168,0,0,0,0,0,-5.5208,-5.5335,-5.5312,-5.5337,-5.5456,-5.556,-5.5576,-5.5563,-5.5504,-5.5565,-5.5581,-5.5537,-5.5745,-5.5676,-5.57,-5.5786,-5.5995,-5.6008,-5.6021,-5.6117,-5.6144,-5.6167,0,0,0,0,0,0,-5.5299,-5.5341,-5.5315,-5.5461,-5.5508,-5.5547,-5.5623,-5.5593,-5.5656,-5.5644,-5.5626,-5.5638,-5.5769,-5.579,-5.5713,-5.5944,-5.586,-5.5879,-5.5925,-5.5951,-5.5972,-5.5962,-5.5625,0,0,0,0,0,-5.5336,-5.5418,-5.545,-5.5576,-5.5601,-5.5609,-5.5653,-5.564,-5.5688,-5.5707,-5.5731,-5.5778,-5.5854,-5.5904,-5.5975,-5.613,-5.6139,-5.6201,-5.6222,-5.6239,-5.6254,-5.6337,-5.6365,-5.607,-5.607,-5.6069,0,0,-5.5413,-5.5447,-5.5499,-5.5595,-5.5629,-5.5714,-5.5626,-5.5718,-5.578,-5.5721,-5.584,-5.5861,-5.5912,-5.6053,-5.6116,-5.6074,-5.6339,-5.6256,-5.6269,-5.6275,-5.6354,-5.6381,-5.6406,-5.6078,-5.6077,-5.6075,0,0,-5.5597,-5.5631,-5.5739,-5.5776,-5.5831,-5.5836,-5.5862,-5.5907,-5.5918,-5.6038,-5.5995,-5.6069,-5.6201,-5.6239,-5.6276,-5.6478,-5.644,-5.6502,-5.6609,-5.669,-5.6713,-5.6734,-5.6804,-5.683,-5.6518,-5.6518,-5.6518,0,-5.5685,-5.5811,-5.5798,-5.5895,-5.5938,-5.589,-5.5999,-5.6036,-5.6111,-5.6142,-5.6095,-5.626,-5.6291,-5.644,-5.649,-5.6522,-5.655,-5.6494,-5.6711,-5.6732,-5.6751,-5.6818,-5.6844,-5.6525,-5.6524,-5.6523,-5.6523,0,-5.5916,-5.6005,-5.6086,-5.616,-5.6213,-5.6316,-5.6318,-5.6374,-5.6358,-5.6368,-5.6491,-5.6528,-5.6606,-5.6641,-5.6625,-5.6789,-5.6761,-5.6714,-5.6628,-5.6786,-5.6849,-5.6874,-5.6535,-5.6532,-5.653,-5.6529,0,0,-5.6156,-5.6225,-5.6254,-5.6288,-5.6346,-5.6413,-5.6515,-5.6592,-5.6639,-5.6694,-5.6777,-5.6891,-5.6848,-5.689,-5.6879,-5.6951,-5.7107,-5.6894,-5.6895,-5.6931,-5.7288,-5.7322,-5.7352,-5.7084,-5.7089,-5.7093,-5.7283,0,-5.6341,-5.6516,-5.6509,-5.6673,-5.6754,-5.6712,-5.68,-5.6845,-5.6859,-5.6929,-5.6943,-5.7024,-5.6962,-5.6987,-5.7056,-5.7073,-5.7178,-5.706,-5.716,-5.7164,-5.7145,-5.7385,-5.742,-5.7598,-5.7308,-5.7312,-5.7315,0,-5.6578,-5.6642,-5.6814,-5.6861,-5.6895,-5.6974,-5.7045,-5.7114,-5.7165,-5.7169,-5.7218,-5.7196,-5.7298,-5.7214,-5.7354,-5.7274,-5.7315,-5.733,-5.7337,-5.7343,-5.7246,-5.7395,-5.7654,-5.768,-5.7354,-5.7351,-5.7348,0,-5.6733,-5.6862,-5.6982,-5.7013,-5.7071,-5.7128,-5.7155,-5.7201,-5.7248,-5.7311,-5.7341,-5.7415,-5.7454,-5.7512,-5.7511,-5.7449,-5.7653,-5.7568,-5.7658,-5.7659,-5.77,-5.7697,-5.7967,-5.7732,-5.7731,-5.7731,-5.773,0,-5.6938,-5.7045,-5.7053,-5.7126,-5.7245,-5.7237,-5.7354,-5.7375,-5.7417,-5.7494,-5.7463,-5.7535,-5.753,-5.7604,-5.7604,-5.772,-5.7739,-5.7745,-5.7743,-5.7746,-5.7745,-5.777,-5.7757,-5.7738,-5.7736,-5.7735,-5.7734,0,-5.713,-5.714,-5.7267,-5.7313,-5.7327,-5.7413,-5.7452,-5.7521,-5.7533,-5.7631,-5.7653,-5.7672,-5.7757,-5.7763,-5.7861,-5.7861,-5.8001,-5.7987,-5.7984,-5.798,-5.807,-5.8061,-5.8364,-5.8402,-5.8144,-5.8147,-5.8149,0,-5.7258,-5.734,-5.7395,-5.7445,-5.7475,-5.7556,-5.7604,-5.7601,-5.7653,-5.7719,-5.778,-5.7863,-5.7929,-5.8067,-5.8089,-5.8165,-5.8151,-5.8252,-5.8161,-5.8162,-5.815,-5.8144,-5.8151,-5.8268,-5.8271,-5.8273,-5.8275,0,-5.7485,-5.7487,-5.7558,-5.7633,-5.7692,-5.775,-5.7804,-5.7847,-5.785,-5.791,-5.7998,-5.8049,-5.815,-5.8233,-5.8307,-5.8334,-5.8306,-5.8304,-5.8329,-5.8331,-5.8325,-5.8328,-5.8029,-5.8296,-5.8294,-5.8292,-5.8291,-5.829,-5.7648,-5.7718,-5.7769,-5.785,-5.7891,-5.7943,-5.8011,-5.8032,-5.8105,-5.8187,-5.8182,-5.8278,-5.8329,-5.8426,-5.846,-5.8535,-5.8501,-5.8537,-5.8545,-5.8554,-5.8562,-5.8316,-5.8549,-5.8549,-5.8548,-5.8548,-5.8547,0,-5.7871,-5.7902,-5.7978,-5.8055,-5.8119,-5.8089,-5.8148,-5.8203,-5.8289,-5.8339,-5.8405,-5.8506,-5.8587,-5.8616,-5.8695,-5.875,-5.8738,-5.877,-5.8764,-5.8771,-5.859,-5.8559,-5.8778,-5.8778,-5.8778,-5.8778,-5.8778,-5.8778,-5.7995,-5.8112,-5.812,-5.8258,-5.8288,-5.8383,-5.8419,-5.8467,-5.8507,-5.8621,-5.8688,-5.8708,-5.875,-5.8832,-5.8904,-5.8911,-5.894,-5.8978,-5.8979,-5.8807,-5.8784,-5.8762,-5.8733,-5.8985,-5.8985,-5.9154,-5.9155,-5.9156]},{"header":{"parameterUnit":"m.s-1","parameterCategory":1,"la1":30.2991,"la2":30.254,"lo1":-89.0895,"lo2":-89.0444,"dy":0.0017,"dx":0.0017,"nx":28,"ny":28,"refTime":"2023-08-19T21:00:00:Z","depth":0,"parameterNumber":3,"parameterNumberName":"V-component_of_WINDS"},"data":[0,0,0,0,0,0,0,0,0,0,0,0,0,0,0,0,0,0,0,0,0,0,0,0,0,0,0,0,0,0,0,0,0,0,0,0,0,0,0,0,0,0,0,0,0,0,0,0,0,0,0,0,0,0,0,0,0,0,2.3937,2.3938,0,2.3981,2.3982,2.3982,2.4,2.4,2.4,2.4,2.404,2.4042,2.4043,0,0,0,0,0,0,0,0,0,0,0,0,0,2.3866,2.3867,2.3937,2.3938,2.3938,2.3981,2.3982,2.3982,2.4,2.4,2.4,2.4,2.404,2.4041,2.4043,0,0,0,0,0,0,0,0,0,0,0,0,0,2.3902,2.3867,2.3937,2.3953,2.3954,2.3981,2.3982,2.3982,2.4,2.4,2.4,2.4,2.404,2.4041,2.4043,2.4056,0,0,2.4048,2.4049,0,0,0,0,0,0,0,0,2.39,2.3904,2.395,2.3952,2.3954,2.3985,2.3971,2.4007,2.4,2.3983,2.4,2.4,2.4022,2.4025,2.4033,2.4058,2.406,2.4049,2.405,2.405,2.4051,0,0,0,0,0,0,0,2.3897,2.3902,2.3955,2.395,2.3953,2.3956,2.3961,2.3978,2.4002,2.3984,2.3986,2.3991,2.4023,2.4032,2.4035,2.4061,2.4048,2.405,2.4051,2.4052,2.4099,2.4099,0,0,0,0,0,0,2.3893,2.39,2.3953,2.3956,2.3926,2.3958,2.3963,2.3975,2.4002,2.4006,2.3991,2.3991,2.4029,2.4032,2.4036,2.4054,2.405,2.4052,2.4053,2.4099,2.4099,2.41,0,0,0,0,0,0,2.3891,2.3897,2.3951,2.3929,2.3936,2.3959,2.3972,2.3976,2.3985,2.4007,2.4011,2.3996,2.4029,2.4034,2.4052,2.4056,2.4053,2.4054,2.4099,2.4099,2.4099,2.4089,0,0,0,0,0,0,2.3889,2.3896,2.3902,2.3929,2.3937,2.3967,2.3972,2.3977,2.3988,2.399,2.4013,2.4017,2.4029,2.4049,2.4053,2.4058,2.4056,2.4098,2.4099,2.4099,2.4089,2.4089,2.4089,0,0,0,0,0,2.3886,2.3897,2.3903,2.3909,2.3945,2.3967,2.3972,2.3987,2.3989,2.3994,2.4009,2.4016,2.4055,2.4051,2.4056,2.4061,2.4098,2.4099,2.4099,2.4089,2.4089,2.4089,0,0,0,0,0,0,2.3868,2.39,2.3907,2.3927,2.3944,2.397,2.3978,2.3987,2.4003,2.4003,2.4021,2.4026,2.4042,2.4053,2.4049,2.4076,2.4077,2.4078,2.4068,2.4068,2.4068,2.4064,2.4057,0,0,0,0,0,2.3867,2.3884,2.391,2.3925,2.3933,2.3954,2.3964,2.3975,2.3994,2.4001,2.4016,2.4033,2.4049,2.4059,2.4075,2.4091,2.4097,2.4097,2.4097,2.4097,2.4098,2.4108,2.4109,2.4101,2.4101,2.4101,0,0,2.3863,2.3883,2.3892,2.3922,2.3937,2.3953,2.396,2.3977,2.3988,2.4003,2.4021,2.4034,2.4053,2.4071,2.4079,2.408,2.4101,2.4098,2.4097,2.4098,2.4108,2.4109,2.411,2.4101,2.4101,2.4101,0,0,2.3865,2.3882,2.3897,2.3912,2.3936,2.395,2.3953,2.3978,2.3988,2.4007,2.4018,2.4032,2.4059,2.4073,2.4083,2.4093,2.41,2.4097,2.4096,2.4106,2.4106,2.4107,2.411,2.4111,2.4098,2.4098,2.4098,0,2.3858,2.3884,2.3902,2.3919,2.3931,2.3947,2.3962,2.3975,2.4002,2.401,2.4011,2.4047,2.4061,2.4082,2.4085,2.4092,2.4096,2.4094,2.4105,2.4106,2.4107,2.411,2.4111,2.4098,2.4098,2.4098,2.4098,0,2.3873,2.3891,2.39,2.3927,2.3941,2.3956,2.3976,2.3988,2.3998,2.4011,2.4031,2.4049,2.4069,2.4075,2.4084,2.4098,2.4098,2.4102,2.4104,2.4107,2.411,2.4112,2.4097,2.4097,2.4097,2.4098,0,0,2.3863,2.3903,2.3906,2.3919,2.3947,2.3961,2.3976,2.3998,2.4008,2.4026,2.4039,2.4063,2.4067,2.4079,2.409,2.4098,2.4105,2.4102,2.4102,2.4101,2.4121,2.4118,2.4119,2.411,2.411,2.4111,2.412,0,2.3869,2.39,2.3918,2.3941,2.3958,2.3974,2.3988,2.4006,2.402,2.4035,2.4049,2.4066,2.4071,2.4078,2.4087,2.4102,2.4109,2.4102,2.4122,2.4122,2.4116,2.4121,2.4117,2.4125,2.4121,2.4121,2.4122,0,2.388,2.39,2.3925,2.3953,2.396,2.3973,2.3995,2.4009,2.403,2.4039,2.4054,2.4065,2.4082,2.4083,2.4106,2.4101,2.411,2.4119,2.4119,2.4121,2.4122,2.4123,2.4128,2.4129,2.4124,2.4124,2.4124,0,2.387,2.3904,2.3924,2.3934,2.3967,2.3975,2.3988,2.4009,2.4022,2.404,2.4048,2.4068,2.4079,2.4093,2.4109,2.4109,2.4131,2.4133,2.4138,2.4138,2.4141,2.4141,2.4148,2.4148,2.4148,2.4148,2.4148,0,2.3875,2.3889,2.392,2.3932,2.3949,2.397,2.3986,2.4,2.4019,2.4033,2.4048,2.4061,2.4082,2.4097,2.411,2.4127,2.4131,2.4139,2.4142,2.4137,2.4136,2.4143,2.4143,2.4148,2.4148,2.4148,2.4148,0,2.3866,2.3888,2.391,2.394,2.3948,2.3959,2.3984,2.3996,2.4011,2.4029,2.4034,2.4058,2.4077,2.4095,2.4119,2.4128,2.4145,2.4149,2.4138,2.414,2.4144,2.4143,2.4155,2.4158,2.4157,2.4157,2.4156,0,2.3867,2.388,2.3912,2.3923,2.3937,2.3956,2.3969,2.399,2.4003,2.4028,2.4037,2.4058,2.4075,2.4105,2.4123,2.4142,2.4146,2.4149,2.4149,2.4144,2.4146,2.4145,2.4146,2.4148,2.4148,2.4148,2.4148,0,2.3867,2.3878,2.3897,2.3921,2.3937,2.3956,2.3975,2.3984,2.4008,2.4021,2.4042,2.4056,2.4083,2.4103,2.4124,2.4137,2.4146,2.4148,2.4151,2.4146,2.4139,2.4143,2.4137,2.4148,2.4148,2.4148,2.4148,2.4148,2.3864,2.3876,2.3901,2.3922,2.3939,2.3958,2.3971,2.3988,2.4007,2.4031,2.4042,2.4063,2.4084,2.4114,2.4127,2.4143,2.4145,2.4148,2.4149,2.4149,2.4148,2.4137,2.4147,2.4147,2.4147,2.4147,2.4147,0,2.3864,2.3882,2.3901,2.3929,2.3946,2.3956,2.3978,2.3991,2.401,2.403,2.4048,2.4072,2.4092,2.4112,2.4133,2.4142,2.4147,2.4146,2.4146,2.4148,2.4145,2.4141,2.4142,2.4142,2.4142,2.4142,2.4142,2.4142,2.3866,2.3888,2.3901,2.3931,2.3948,2.397,2.3982,2.3999,2.4015,2.4042,2.4059,2.4073,2.4093,2.4116,2.4134,2.414,2.4147,2.4145,2.4152,2.4148,2.4148,2.4149,2.4145,2.4147,2.4147,2.4153,2.4153,2.4153]}]]